Augusta, Maine, United States (04330)
Lat: 44.31N, Lon: 69.78W
Wx Zone: MEZ021
Local Info
Past Weather Observations for Saturday, July 26, 2014

NOTE: This archive is for the closest National Weather Service station to Augusta. Information may differ from the station used for current weather conditions.

Click here for Long-term Archive

Time Weather Temperature Dewpoint Humidity Pressure Winds Precip Visibility
23:53
Clear
63°F / 17°C 61°F / 16°C 94% 29.86 in
(1011 mb)
S 3.5 mph
(S 6 kph)
- 9SM
22:53
Clear
63°F / 17°C 61°F / 16°C 94% 29.89 in
(1012 mb)
Calm - 9SM
21:53
Clear
64°F / 18°C 63°F / 17°C 94% 29.89 in
(1012 mb)
SSE 4.6 mph
(SSE 7 kph)
- 10SM
20:53
Clear
66°F / 19°C 63°F / 17°C 88% 29.89 in
(1012 mb)
S 5.8 mph
(S 9 kph)
- 10SM
19:53
Clear
68°F / 20°C 63°F / 17°C 83% 29.86 in
(1011 mb)
Variable 4.6 mph
(Variable 7 kph)
- 10SM
18:53
Clear
72°F / 22°C 63°F / 17°C 73% 29.83 in
(1010 mb)
S 5.8 mph
(S 9 kph)
- 10SM
17:53
Clear
73°F / 23°C 61°F / 16°C 65% 29.83 in
(1010 mb)
S 9.2 mph
(S 15 kph)
- 10SM
16:53
Clear
75°F / 24°C 61°F / 16°C 61% 29.83 in
(1010 mb)
S 11.5 mph
(S 19 kph)
- 10SM
15:53
Clear
77°F / 25°C 61°F / 16°C 57% 29.86 in
(1011 mb)
S 9.2 mph
(S 15 kph)
- 10SM
14:53
Clear
77°F / 25°C 57°F / 14°C 51% 29.86 in
(1011 mb)
S 11.5 mph
(S 19 kph)
- 10SM
13:53
Partly Cloudy
79°F / 26°C 59°F / 15°C 51% 29.86 in
(1011 mb)
S 8.1 mph
(S 13 kph)
- 10SM
12:53
Mostly Cloudy
77°F / 25°C 55°F / 13°C 47% 29.89 in
(1012 mb)
S 8.1 mph
(S 13 kph)
- 10SM
11:53
Clear
75°F / 24°C 54°F / 12°C 47% 29.92 in
(1013 mb)
SW 5.8 mph
(SW 9 kph)
- 10SM
10:53
Clear
75°F / 24°C 55°F / 13°C 50% 29.92 in
(1013 mb)
Variable 5.8 mph
(Variable 9 kph)
- 9SM
09:53
Clear
73°F / 23°C 57°F / 14°C 57% 29.95 in
(1014 mb)
SW 5.8 mph
(SW 9 kph)
- 9SM
08:53
Clear
73°F / 23°C 61°F / 16°C 65% 29.95 in
(1014 mb)
Variable 3.5 mph
(Variable 6 kph)
- 9SM
07:53
Clear
70°F / 21°C 61°F / 16°C 73% 29.95 in
(1014 mb)
Variable 3.5 mph
(Variable 6 kph)
- 8SM
06:53
Clear
Hazy
66°F / 19°C 61°F / 16°C 83% 29.95 in
(1014 mb)
SW 3.5 mph
(SW 6 kph)
- 6SM
05:53
Clear
Fog And Mist
63°F / 17°C 59°F / 15°C 88% 29.95 in
(1014 mb)
Calm - 6SM
04:53
Clear
Hazy
63°F / 17°C 57°F / 14°C 83% 29.95 in
(1014 mb)
W 3.5 mph
(W 6 kph)
- 6SM
03:53
Clear
63°F / 17°C 57°F / 14°C 83% 29.92 in
(1013 mb)
S 4.6 mph
(S 7 kph)
- 7SM
02:53
Clear
63°F / 17°C 57°F / 14°C 83% 29.92 in
(1013 mb)
SW 3.5 mph
(SW 6 kph)
- 8SM
01:53
Clear
64°F / 18°C 57°F / 14°C 78% 29.92 in
(1013 mb)
Calm - 7SM
00:53
Clear
64°F / 18°C 57°F / 14°C 78% 29.92 in
(1013 mb)
SW 3.5 mph
(SW 6 kph)
- 7SM
Time Weather Temperature Dewpoint Humidity Pressure Winds Precip Visibility


Weather for websites

WeatherForYou.com, LLC is not responsible for any damages or problems caused by this service. Current weather conditions are obtained from the closest station including government and personal stations which may have varying degrees of accuracy. Weather forecasts are derived from the NOAA NDFD. Like all things, this site belongs to Jesus Christ... He just trusts me to maintain it. If you have any questions or comments email webmaster@weatherforyou.com

Copyright © 2014, WeatherForYou.com LLC. All rights reserved.